Location: Callanans Corners
(42.5326°N, 73.8846°W)
Time: 17:44:05
(UTC+00:00)

Cosmos 1726 - Pass Details

Date: 06 October 2022
Orbit: 463 x 480 km, 82.5° (Epoch: 05 December)

Event Time Altitude Azimuth Distance (km) Brightness Sun altitude
Rises 23:42:53 0° 211° (SSW) 2,539 6.1 -14.6°
Reaches altitude 10° 23:45:10 10° 223° (SW) 1,666 5.3 -15.0°
Maximum altitude 23:48:22 28° 284° (WNW) 932 4.3 -15.6°
Drops below altitude 10° 23:51:36 10° 346° (NNW) 1,681 5.1 -16.2°
Sets 23:53:55 0° 358° (N) 2,567 5.9 -16.6°
